1487883601.12,23141,10.13,72104.8,-4.05,-22.93,-20.69,0,*53
1487883602.4,23142,10.13,72108.3,-4.03,-22.77,-20.53,0,*55
1487883603.66,23143,10.13,72120.5,-4.03,-22.73,-20.49,0,*5B
1487883604.88,23144,10.13,72156.5,-4.09,-22.93,-20.59,0,*59
1487883606.13,23145,10.13,72168.3,-4.09,-22.77,-20.59,0,*52
1487883607.4,23146,10.13,72168.3,-4.05,-22.73,-20.53,0,*53
1487883608.67,23147,10.13,72140.3,-4.05,-22.73,-20.53,0,*52
1487883609.94,23148,10.13,72124.5,-4.05,-22.77,-20.53,0,*59
1487883611.21,23149,10.13,72134.3,-4.05,-22.73,-20.53,0,*5C
1487883612.45,23150,10.13,72132.0,-4.03,-22.67,-20.49,0,*5C
1487883613.7,23151,10.13,72122.5,-4.05,-22.73,-20.39,0,*59
1487883614.91,23152,10.13,72098.8,-4.05,-22.41,-20.29,0,*5A
1487883616.13,23153,10.13,71996.5,-4.05,-22.63,-20.43,0,*57
1487883617.37,23154,10.13,71960.0,-4.03,-22.37,-20.15,0,*54
1487883618.61,23155,10.13,71930.3,-4.03,-22.17,-19.99,0,*59
1487883619.85,23156,10.13,71910.5,-4.03,-22.41,-20.19,0,*5B
1487883621.07,23157,10.13,71942.8,-4.03,-22.57,-20.39,0,*5F
1487883622.32,23158,10.13,72012.8,-4.05,-22.73,-20.43,0,*5D
1487883623.56,23159,10.13,72028.5,-4.03,-22.57,-20.35,0,*5D
1487883624.8,23160,10.13,72066.5,-4.03,-22.53,-20.19,0,*5D
1487883626.04,23161,10.13,72082.0,-4.03,-22.57,-20.35,0,*56
1487883627.26,23162,10.13,72094.3,-4.03,-22.67,-20.39,0,*5A
1487883628.49,23163,10.13,72110.3,-4.03,-22.67,-20.35,0,*57
1487883629.73,23164,10.13,72118.0,-4.05,-22.73,-20.29,0,*5E
1487883630.95,23165,10.13,72120.0,-4.05,-22.67,-20.25,0,*56
1487883632.18,23166,10.13,72126.8,-4.03,-22.57,-20.39,0,*5D
1487883633.45,23167,10.13,72126.0,-4.05,-22.73,-20.53,0,*50
1487883634.7,23168,10.13,72118.5,-4.05,-22.73,-20.39,0,*53
1487883635.95,23169,10.13,72114.8,-4.05,-22.77,-20.43,0,*5B
1487883637.22,23170,10.13,72118.5,-4.05,-22.77,-20.53,0,*52
1487883638.44,23171,10.13,72118.0,-4.05,-22.87,-20.59,0,*56
1487883639.72,23172,10.13,72114.5,-4.05,-22.77,-20.53,0,*50
1487883640.96,23173,10.13,72098.0,-4.05,-22.87,-20.53,0,*5E
1487883642.17,23174,10.13,72090.3,-4.09,-22.83,-20.43,0,*50
1487883643.39,23175,10.13,72086.8,-4.09,-22.87,-20.59,0,*5E
1487883644.61,23176,10.13,72098.5,-4.09,-22.93,-20.63,0,*51
1487883645.83,23177,10.13,72092.0,-4.09,-22.93,-20.59,0,*59
1487883647.07,23178,10.13,72084.0,-4.09,-22.77,-20.43,0,*57
1487883648.3,23179,10.13,72090.3,-4.05,-22.57,-20.39,0,*55
1487883649.57,23180,10.13,72074.5,-4.11,-22.31,-20.09,0,*55
1487883650.8,23181,10.13,72082.0,-4.09,-22.37,-20.15,0,*56
1487883652.03,23182,10.13,72096.8,-4.09,-22.37,-20.15,0,*55
1487883653.3,23183,10.13,72094.0,-4.11,-22.31,-20.09,0,*56
1487883654.56,23184,10.13,72100.8,-4.11,-22.47,-20.25,0,*5E
1487883655.81,23185,10.13,72104.8,-4.11,-22.53,-20.29,0,*56
1487883657.05,23186,10.13,72114.0,-4.11,-22.53,-20.29,0,*55
1487883658.32,23187,10.13,72120.8,-4.11,-22.47,-20.29,0,*51
1487883659.57,23188,10.13,72106.5,-4.11,-22.63,-20.35,0,*55
1487883660.81,23189,10.13,72106.3,-4.11,-22.63,-20.29,0,*59
1487883662.04,23190,10.13,72120.5,-4.11,-22.63,-20.29,0,*51
1487883663.28,23191,10.13,72102.5,-4.09,-22.31,-20.25,0,*52
1487883664.54,23192,10.13,72100.8,-4.11,-22.37,-20.15,0,*5D
1487883665.78,23193,10.13,72126.3,-4.11,-22.53,-20.29,0,*51
1487883667.07,23194,10.13,72140.8,-4.11,-22.31,-20.15,0,*5D
1487883668.3,23195,10.13,72124.0,-4.11,-22.27,-19.99,0,*55
1487883669.54,23196,10.13,72090.0,-4.11,-22.27,-20.09,0,*55
1487883670.81,23197,10.13,72100.3,-4.11,-22.31,-20.25,0,*5D
1487883672.09,23198,10.13,72118.0,-4.11,-22.47,-20.15,0,*50
1487883673.33,23199,10.13,72116.8,-4.13,-22.31,-19.99,0,*5C
1487883674.58,23200,10.13,72120.5,-4.13,-22.31,-20.09,0,*5C
1487883675.84,23201,10.13,72124.0,-4.13,-22.31,-20.15,0,*50
1487883677.06,23202,10.13,72118.3,-4.13,-22.27,-19.95,0,*56
1487883678.32,23203,10.13,72110.5,-4.11,-22.03,-19.85,0,*52
1487883679.54,23204,10.13,72110.5,-4.13,-22.27,-19.99,0,*5C
1487883680.75,23205,10.13,72106.8,-4.13,-22.27,-20.09,0,*5E
1487883682.0,23206,10.13,72108.5,-4.13,-22.17,-19.99,0,*5D
1487883683.29,23207,10.13,72110.8,-4.15,-22.31,-20.15,0,*50
1487883684.55,23208,10.13,72096.5,-4.15,-22.37,-20.15,0,*59
1487883685.8,23209,10.13,72110.5,-4.13,-22.17,-20.09,0,*51
1487883687.06,23210,10.13,72114.0,-4.11,-22.31,-20.09,0,*5F
1487883688.32,23211,10.13,72104.0,-4.15,-22.07,-19.85,0,*51
1487883689.54,23212,10.13,72108.3,-4.13,-22.11,-19.95,0,*52
1487883690.83,23213,10.13,72102.5,-4.15,-22.31,-20.15,0,*55
1487883692.09,23214,10.13,72100.3,-4.15,-22.37,-20.19,0,*58
1487883693.36,23215,10.13,72108.3,-4.15,-22.37,-20.19,0,*59
1487883694.63,23216,10.13,72110.5,-4.15,-22.21,-20.05,0,*50
1487883695.9,23217,10.13,72106.3,-4.15,-22.21,-20.05,0,*51
1487883697.13,23218,10.13,72106.3,-4.15,-22.07,-19.91,0,*5D
1487883698.37,23219,10.13,72106.3,-4.17,-22.03,-19.85,0,*5F
1487883699.59,23220,10.13,72098.3,-4.17,-21.93,-19.75,0,*50
1487883700.83,23221,10.13,72090.8,-4.17,-21.77,-19.61,0,*5E
1487883702.05,23222,10.13,72084.5,-4.17,-21.73,-19.47,0,*5D
1487883703.32,23223,10.13,72088.8,-4.15,-21.87,-19.71,0,*50
1487883704.59,23224,10.13,72094.3,-4.17,-21.87,-19.85,0,*5E
1487883705.83,23225,10.13,72084.0,-4.15,-21.93,-19.75,0,*57
1487883707.09,23226,10.13,72068.8,-4.15,-22.03,-19.85,0,*51
1487883708.33,23227,10.13,72084.0,-4.17,-21.93,-19.85,0,*58
1487883709.54,23228,10.13,72096.5,-4.17,-22.07,-19.99,0,*54
1487883710.78,23229,10.13,72110.8,-4.17,-22.03,-19.85,0,*5C
1487883712.02,23230,10.13,72114.8,-4.17,-21.77,-19.61,0,*5E
1487883713.27,23231,10.13,72124.0,-4.17,-21.87,-19.71,0,*51
1487883714.51,23232,10.13,72134.5,-4.17,-21.77,-19.61,0,*5C
1487883715.78,23233,10.13,72142.5,-4.19,-21.93,-19.81,0,*57
1487883717.04,23234,10.13,72150.8,-4.19,-21.93,-19.81,0,*50
1487883718.31,23235,10.06,72150.3,-4.19,-21.83,-19.75,0,*5B
1487883719.6,23236,10.13,72162.5,-4.19,-21.83,-19.81,0,*53
1487883720.89,23237,10.06,72168.0,-4.19,-21.83,-19.65,0,*58
1487883722.15,23238,10.13,72178.3,-4.19,-21.63,-19.61,0,*5D
1487883723.42,23239,10.13,72172.8,-4.21,-21.67,-19.65,0,*57
1487883724.69,23240,10.13,72176.5,-4.19,-21.63,-19.61,0,*52
1487883725.93,23241,10.13,72170.5,-4.19,-21.77,-19.75,0,*53
1487883727.2,23242,10.13,72174.5,-4.21,-21.57,-19.65,0,*58
1487883728.48,23243,10.13,72174.8,-4.21,-21.53,-19.57,0,*5C
1487883729.72,23244,10.06,72180.0,-4.17,-21.57,-19.47,0,*5B
1487883730.99,23245,10.13,72192.5,-4.21,-21.57,-19.57,0,*5E
1487883732.2,23246,10.13,72178.3,-4.21,-21.39,-19.51,0,*53
1487883733.44,23247,10.06,72142.5,-4.21,-21.17,-19.23,0,*5B
1487883734.68,23248,10.13,72092.8,-4.19,-20.89,-18.99,0,*59
1487883735.94,23249,10.13,72126.3,-4.19,-20.83,-18.83,0,*59
1487883737.15,23250,10.06,72150.8,-4.17,-20.63,-18.65,0,*59
1487883738.39,23251,10.13,72132.0,-4.19,-20.89,-18.99,0,*51
1487883739.63,23252,10.13,72116.5,-4.17,-20.99,-18.99,0,*5D
1487883740.85,23253,10.13,72102.0,-4.15,-21.09,-19.07,0,*50
1487883742.09,23254,10.13,72102.5,-4.19,-21.13,-19.03,0,*54
1487883743.33,23255,10.13,72126.8,-4.17,-20.93,-18.93,0,*5A
1487883744.59,23256,10.13,72130.8,-4.15,-20.99,-18.99,0,*5B
1487883745.85,23257,10.06,72118.5,-4.15,-20.99,-18.99,0,*5A
1487883747.11,23258,10.13,72130.0,-4.15,-20.93,-18.93,0,*55
1487883748.4,23259,10.06,72118.0,-4.15,-20.99,-18.93,0,*5E
1487883749.66,23260,10.13,72108.0,-4.15,-20.99,-18.99,0,*5E
1487883750.95,23261,10.13,72160.3,-4.15,-20.99,-18.89,0,*5E
1487883752.21,23262,10.13,72122.5,-4.15,-20.83,-18.83,0,*5C
1487883753.42,23263,10.13,72110.0,-4.13,-20.73,-18.73,0,*5B
1487883754.66,23264,10.06,72104.5,-4.13,-20.49,-18.49,0,*5C
1487883755.92,23265,10.13,72124.3,-4.11,-20.49,-18.49,0,*5F
1487883757.16,23266,10.13,72100.8,-4.11,-20.43,-18.45,0,*5A
1487883758.45,23267,10.13,72074.0,-4.11,-20.35,-18.31,0,*59
1487883759.68,23268,10.13,72106.3,-4.11,-20.43,-18.49,0,*58
1487883760.95,23269,10.13,72100.8,-4.11,-20.89,-18.93,0,*58
1487883762.15,23270,10.13,72114.5,-4.09,-20.93,-19.03,0,*5A
1487883763.35,23271,10.13,72112.3,-4.09,-20.93,-19.03,0,*5B
1487883764.61,23272,10.13,72116.5,-4.09,-21.03,-18.93,0,*58
1487883765.83,23273,10.13,72118.0,-4.09,-20.59,-18.73,0,*59
1487883767.07,23274,10.13,72124.0,-4.11,-20.63,-18.73,0,*5E
1487883768.35,23275,10.13,72118.3,-4.11,-20.79,-18.93,0,*5A
1487883769.6,23276,10.13,72138.3,-4.11,-20.73,-18.89,0,*58
1487883770.83,23277,10.13,72118.0,-4.11,-20.73,-18.79,0,*56
1487883772.04,23278,10.13,72116.0,-4.09,-20.63,-18.65,0,*5C
1487883773.29,23279,10.13,72112.0,-4.09,-20.79,-18.89,0,*54
1487883774.51,23280,10.13,72094.8,-4.09,-20.43,-18.49,0,*57
1487883775.76,23281,10.13,72046.0,-4.11,-20.59,-18.59,0,*55
1487883776.98,23282,10.13,72084.5,-4.09,-20.43,-18.45,0,*59
1487883778.21,23283,10.13,72036.0,-4.09,-20.35,-18.45,0,*59
1487883779.41,23284,10.13,72012.0,-4.09,-20.25,-18.45,0,*5F
1487883780.67,23285,10.13,72048.0,-4.03,-20.49,-18.55,0,*5F
1487883781.91,23286,10.06,72032.0,-4.05,-20.43,-18.59,0,*5C
1487883783.14,23287,10.13,72034.5,-4.05,-20.43,-18.59,0,*5D
1487883784.38,23288,10.13,72044.5,-4.05,-20.19,-18.41,0,*54
1487883785.61,23289,10.13,72072.5,-4.05,-20.29,-18.55,0,*53
1487883786.83,23290,10.13,72108.5,-4.03,-20.19,-18.41,0,*5B
1487883788.04,23291,10.13,72026.0,-4.03,-19.99,-18.21,0,*5E
1487883789.26,23292,10.13,71984.3,-4.05,-20.09,-18.21,0,*58
1487883790.48,23293,10.13,71976.8,-4.03,-20.15,-18.21,0,*52
1487883791.71,23294,10.13,72028.0,-4.03,-20.15,-18.21,0,*55
1487883792.95,23295,10.13,72048.8,-4.01,-20.05,-18.21,0,*57
1487883794.23,23296,10.13,72040.5,-4.01,-20.15,-18.35,0,*50
1487883795.51,23297,10.13,72068.0,-4.01,-20.35,-18.55,0,*55
1487883796.79,23298,10.13,72080.3,-4.01,-20.19,-18.35,0,*52
1487883798.08,23299,10.13,72092.3,-4.01,-20.19,-18.35,0,*53
1487883799.36,23300,10.13,72074.8,-4.01,-20.15,-18.35,0,*5E
1487883800.63,23301,10.13,72062.0,-3.99,-20.19,-18.35,0,*55
1487883801.86,23302,10.13,72082.8,-4.01,-20.39,-18.65,0,*57
1487883803.14,23303,10.13,72102.0,-4.01,-20.35,-18.55,0,*59
1487883804.42,23304,10.13,72078.0,-4.01,-20.35,-18.55,0,*5E
1487883805.68,23305,10.13,72018.8,-4.01,-20.49,-18.79,0,*5A
1487883806.93,23306,10.13,72082.0,-4.01,-20.35,-18.65,0,*5F
1487883808.17,23307,10.13,72094.8,-3.99,-20.09,-18.35,0,*52
1487883809.43,23308,10.13,72100.3,-4.01,-20.05,-18.35,0,*57
1487883810.67,23309,10.13,72120.3,-4.01,-19.99,-18.21,0,*5C
1487883811.9,23310,10.13,72136.3,-4.01,-19.91,-18.21,0,*5C
1487883813.14,23311,10.13,72092.5,-4.01,-19.91,-18.21,0,*5D
1487883814.38,23312,10.13,72140.8,-3.99,-20.09,-18.35,0,*56
1487883815.58,23313,10.13,72160.8,-3.99,-20.09,-18.45,0,*50
1487883816.82,23314,10.13,72132.8,-3.99,-20.09,-18.31,0,*54
1487883818.07,23315,10.06,72110.5,-3.99,-19.95,-18.35,0,*5E
1487883819.3,23316,10.13,72138.5,-3.99,-20.09,-18.35,0,*52
1487883820.55,23317,10.13,72162.3,-3.99,-20.19,-18.59,0,*58
1487883821.78,23318,10.13,72112.3,-4.01,-20.05,-18.41,0,*55
1487883823.03,23319,10.13,72060.0,-3.99,-19.95,-18.35,0,*52
1487883824.26,23320,10.13,72000.5,-3.99,-20.15,-18.45,0,*5D
1487883825.51,23321,10.13,71998.3,-3.99,-20.15,-18.59,0,*51
1487883826.79,23322,10.06,72016.3,-3.97,-20.15,-18.59,0,*5C
1487883828.06,23323,10.13,72036.0,-3.97,-19.95,-18.35,0,*55
1487883829.28,23324,10.13,72066.8,-3.99,-19.81,-18.17,0,*59
1487883830.52,23325,10.06,72078.0,-3.99,-19.95,-18.59,0,*57
1487883831.74,23326,10.13,72076.8,-3.99,-20.09,-18.59,0,*5B
1487883832.95,23327,10.13,72082.3,-3.99,-20.05,-18.49,0,*57
1487883834.18,23328,10.13,72090.0,-3.97,-20.09,-18.49,0,*5A
1487883835.43,23329,10.13,72080.0,-3.97,-19.95,-18.45,0,*58
1487883836.67,23330,10.13,72106.5,-3.99,-19.99,-18.31,0,*51
1487883837.91,23331,10.13,72108.3,-4.01,-19.99,-18.41,0,*51
1487883839.12,23332,10.13,72108.5,-3.99,-20.09,-18.49,0,*5F
1487883840.38,23333,10.13,72118.8,-3.99,-19.85,-18.35,0,*5B
1487883841.63,23334,10.13,72116.3,-3.97,-19.71,-18.11,0,*5F
1487883842.87,23335,10.13,72108.5,-3.97,-19.71,-18.17,0,*58
1487883844.12,23336,10.13,72114.3,-3.99,-19.95,-18.31,0,*5B
1487883845.34,23337,10.13,72124.5,-3.99,-19.99,-18.49,0,*59
1487883846.58,23338,10.13,72126.5,-3.97,-19.99,-18.45,0,*54
1487883847.82,23339,10.13,72132.0,-3.97,-19.99,-18.49,0,*59
1487883849.07,23340,10.13,72136.3,-3.97,-20.09,-18.59,0,*55
1487883850.32,23341,10.13,72134.5,-3.99,-20.15,-18.59,0,*57
1487883851.56,23342,10.13,72142.3,-4.01,-20.25,-18.69,0,*52
1487883852.77,23343,10.13,72142.5,-3.99,-20.09,-18.49,0,*59
1487883854.0,23344,10.13,72146.0,-4.01,-20.05,-18.49,0,*54
1487883855.26,23345,10.13,72140.0,-3.97,-19.85,-18.45,0,*53
1487883856.52,23346,10.13,72128.5,-4.01,-19.91,-18.55,0,*5C
1487883857.78,23347,10.13,72130.5,-4.01,-19.99,-18.55,0,*55
1487883859.04,23348,10.13,72132.8,-4.01,-19.91,-18.35,0,*54
1487883860.34,23349,10.13,72130.0,-4.01,-19.61,-17.97,0,*5D
1487883861.57,23350,10.13,72112.5,-3.99,-19.81,-18.17,0,*5A
1487883862.82,23351,10.13,72124.5,-3.99,-19.71,-18.31,0,*50
1487883864.08,23352,10.13,72112.3,-4.01,-19.61,-18.17,0,*50
1487883865.32,23353,10.13,72132.3,-4.01,-19.75,-18.21,0,*51
1487883866.58,23354,10.13,72138.0,-3.99,-19.81,-18.35,0,*5E
1487883867.81,23355,10.13,72106.3,-4.01,-19.75,-18.21,0,*57
1487883869.05,23356,10.13,72136.3,-4.01,-19.91,-18.21,0,*5E
1487883870.31,23357,10.13,72124.3,-3.99,-19.81,-18.31,0,*59
1487883871.55,23358,10.13,72100.0,-4.01,-19.71,-18.21,0,*5E
1487883872.8,23359,10.13,72084.3,-3.99,-19.65,-18.11,0,*5F
1487883874.06,23360,10.13,72088.5,-3.99,-19.81,-18.31,0,*5D
1487883875.32,23361,10.13,72092.8,-3.99,-19.85,-18.31,0,*58
1487883876.59,23362,10.13,72048.0,-3.99,-19.85,-18.35,0,*5F
1487883877.82,23363,10.13,72018.3,-4.01,-19.91,-18.41,0,*5E
1487883879.06,23364,10.13,72058.3,-3.99,-19.91,-18.35,0,*5C
1487883880.29,23365,10.13,72070.8,-3.99,-19.71,-18.11,0,*55
1487883881.51,23366,10.13,72072.8,-3.99,-19.71,-18.11,0,*56
1487883882.77,23367,10.13,72036.8,-3.99,-19.81,-18.35,0,*5E
1487883884.03,23368,10.13,72040.5,-3.99,-19.85,-18.31,0,*51
1487883885.28,23369,10.13,72084.3,-3.99,-19.65,-18.11,0,*5C
1487883886.53,23370,10.13,72092.8,-3.99,-19.65,-18.11,0,*54
1487883887.77,23371,10.13,72140.3,-3.99,-19.65,-18.11,0,*55
1487883889.02,23372,10.13,72164.5,-3.99,-19.71,-18.31,0,*51
1487883890.31,23373,10.13,72138.3,-4.01,-19.85,-18.35,0,*59
1487883891.52,23374,10.13,72138.8,-3.99,-19.95,-18.45,0,*5E
1487883892.74,23375,10.13,72112.5,-3.99,-19.95,-18.45,0,*5F
1487883894.01,23376,10.13,72112.8,-3.99,-19.85,-18.31,0,*5E
1487883895.27,23377,10.13,72148.8,-4.01,-19.91,-18.35,0,*58
1487883896.54,23378,10.13,72142.3,-3.99,-19.85,-18.35,0,*54
1487883897.82,23379,10.13,72156.8,-4.01,-19.85,-18.35,0,*53
1487883899.08,23380,10.13,72090.8,-4.01,-19.85,-18.41,0,*56
1487883900.34,23381,10.13,72090.5,-4.01,-19.91,-18.35,0,*51
1487883901.63,23382,10.13,72094.8,-4.01,-19.85,-18.35,0,*57
1487883902.89,23383,10.13,72090.3,-4.01,-19.85,-18.41,0,*55
1487883904.15,23384,10.13,72096.8,-3.99,-19.81,-18.31,0,*57
1487883905.41,23385,10.13,72096.3,-4.01,-19.57,-18.17,0,*5F
1487883906.71,23386,10.13,72080.8,-4.01,-19.61,-18.01,0,*5E
1487883907.98,23387,10.13,72104.5,-3.99,-19.57,-18.01,0,*5C
1487883909.25,23388,10.13,72104.8,-4.01,-19.61,-18.07,0,*56
1487883910.5,23389,10.06,72068.3,-3.99,-19.65,-18.11,0,*52
1487883911.75,23390,10.13,72088.0,-3.97,-19.81,-18.17,0,*58
1487883912.99,23391,10.13,72068.3,-3.97,-19.71,-18.17,0,*56
1487883914.28,23392,10.13,72080.8,-4.01,-19.85,-18.35,0,*56
1487883915.54,23393,10.13,72102.8,-3.99,-19.81,-18.31,0,*51
1487883916.8,23394,10.13,72102.8,-4.01,-19.85,-18.41,0,*53
1487883918.08,23395,10.13,72092.5,-4.01,-19.85,-18.35,0,*51
1487883919.34,23396,10.13,72098.0,-4.01,-19.85,-18.21,0,*57
1487883920.6,23397,10.13,72088.0,-4.01,-19.47,-17.93,0,*5E
1487883921.82,23398,10.13,72106.3,-4.03,-19.47,-17.87,0,*56
1487883923.09,23399,10.13,72112.0,-4.03,-19.31,-18.01,0,*57
1487883924.33,23400,10.13,72096.8,-4.03,-19.57,-18.07,0,*56
1487883925.57,23401,10.13,72120.0,-4.03,-19.47,-17.93,0,*54
1487883926.83,23402,10.06,72098.5,-4.03,-19.31,-17.93,0,*56
1487883928.09,23403,10.13,72092.8,-4.03,-19.31,-17.93,0,*57
1487883929.33,23404,10.13,72110.8,-4.03,-19.61,-18.21,0,*53
1487883930.56,23405,10.13,72118.3,-4.05,-19.51,-18.07,0,*53
1487883931.8,23406,10.13,72120.3,-4.03,-19.57,-18.07,0,*50
1487883933.04,23407,10.13,72128.0,-4.03,-19.57,-18.07,0,*51
1487883934.29,23408,10.13,72138.0,-4.03,-19.57,-18.07,0,*5E
1487883935.5,23409,10.13,72154.8,-4.05,-19.75,-18.21,0,*5D
1487883936.74,23410,10.06,72156.5,-4.05,-19.65,-18.25,0,*50
1487883937.98,23411,10.06,72166.3,-4.03,-19.47,-18.01,0,*51
1487883939.2,23412,10.13,72132.5,-4.05,-19.47,-18.11,0,*55
1487883940.44,23413,10.13,72126.3,-4.03,-19.47,-18.01,0,*53
1487883941.7,23414,10.06,72126.3,-4.03,-19.61,-17.93,0,*54
1487883942.96,23415,10.13,72154.8,-4.03,-19.31,-17.79,0,*54
1487883944.19,23416,10.13,72158.8,-4.05,-19.13,-17.69,0,*50
1487883945.44,23417,10.06,72114.0,-4.05,-19.13,-17.63,0,*5B
1487883946.68,23418,10.13,72154.0,-4.03,-19.13,-17.63,0,*52
1487883947.95,23419,10.13,72170.3,-4.03,-19.41,-18.01,0,*5F
1487883949.22,23420,10.13,72156.5,-4.03,-19.27,-17.79,0,*55
1487883950.45,23421,10.13,72156.5,-4.03,-19.23,-17.73,0,*5A
1487883951.7,23422,10.13,72136.3,-4.03,-19.13,-17.59,0,*52
1487883952.95,23423,10.06,72120.5,-4.03,-19.13,-17.55,0,*5F
1487883954.17,23424,10.13,72126.3,-4.03,-18.83,-17.35,0,*56
1487883955.4,23425,10.13,72140.3,-4.03,-18.99,-17.45,0,*5B
1487883956.67,23426,10.13,72136.8,-4.01,-19.23,-17.73,0,*5F
1487883957.94,23427,10.13,72148.0,-4.01,-19.07,-17.45,0,*5D
1487883959.2,23428,10.13,72144.3,-4.01,-19.07,-17.63,0,*56
1487883960.47,23429,10.13,72116.3,-3.99,-19.23,-17.59,0,*5E
1487883961.72,23430,10.13,72134.8,-3.99,-19.17,-17.59,0,*51
1487883963.01,23431,10.13,72132.0,-4.01,-19.23,-17.59,0,*51
1487883964.26,23432,10.13,72142.0,-3.99,-19.23,-17.69,0,*57
1487883965.49,23433,10.13,72090.3,-4.01,-19.07,-17.49,0,*54
1487883966.74,23434,10.06,72066.5,-3.99,-19.03,-17.41,0,*59
1487883967.98,23435,10.13,72036.0,-3.99,-19.17,-17.55,0,*58
1487883969.22,23436,10.13,72010.8,-3.99,-18.93,-17.31,0,*54
1487883970.46,23437,10.06,72026.3,-3.99,-18.79,-17.25,0,*54
1487883971.75,23438,10.13,72034.5,-3.97,-18.59,-17.11,0,*50
1487883973.01,23439,10.06,72040.5,-3.97,-18.59,-16.97,0,*5E
1487883974.23,23440,10.06,72044.5,-3.95,-18.41,-16.75,0,*57
1487883975.48,23441,10.13,72058.0,-3.95,-18.69,-17.07,0,*58
1487883976.74,23442,10.06,72058.5,-3.95,-18.89,-17.25,0,*55
1487883978.0,23443,10.13,72094.5,-3.93,-18.73,-17.21,0,*53
1487883979.26,23444,10.13,72098.8,-3.93,-18.89,-17.35,0,*54
1487883980.52,23445,10.06,72098.5,-3.93,-19.17,-17.55,0,*55
1487883981.79,23446,10.06,72098.3,-3.93,-19.17,-17.41,0,*53
1487883983.06,23447,10.13,72094.8,-3.93,-19.13,-17.41,0,*56
1487883984.3,23448,10.13,72122.0,-3.95,-19.03,-17.41,0,*5E
1487883985.52,23449,10.13,72110.0,-3.95,-19.13,-17.35,0,*5D
1487883986.74,23450,10.06,72124.5,-3.95,-19.17,-17.49,0,*5A
1487883987.95,23451,10.06,72124.5,-3.95,-19.03,-17.35,0,*55
1487883989.19,23452,10.06,72100.8,-3.95,-18.83,-17.25,0,*5E
1487883990.43,23453,10.13,72104.0,-3.93,-18.99,-17.35,0,*53
1487883991.69,23454,10.06,72128.3,-3.93,-18.83,-17.21,0,*5A
1487883992.96,23455,10.13,72074.3,-3.93,-18.83,-17.21,0,*5B
1487883994.16,23456,10.06,72058.0,-3.91,-18.99,-17.31,0,*50
1487883995.43,23457,10.06,72064.0,-3.93,-18.99,-17.41,0,*54
1487883996.67,23458,10.06,72064.8,-3.93,-18.83,-17.35,0,*53
1487883997.9,23459,10.13,72074.3,-3.91,-18.49,-17.03,0,*53
1487883999.19,23460,10.06,72050.5,-3.93,-18.89,-17.21,0,*57
1487884000.42,23461,10.13,72090.8,-3.91,-18.83,-17.17,0,*5B
1487884001.66,23462,10.13,72068.0,-3.91,-18.79,-17.11,0,*5B
1487884002.94,23463,10.06,72096.3,-3.93,-18.89,-17.21,0,*54
1487884004.17,23464,10.06,72066.5,-3.91,-18.65,-17.11,0,*50
1487884005.41,23465,10.13,72046.5,-3.91,-18.69,-17.11,0,*5D
1487884006.63,23466,10.13,72082.5,-3.91,-19.07,-17.35,0,*51
1487884007.84,23467,10.13,72102.0,-3.91,-18.99,-17.31,0,*52
1487884009.11,23468,10.13,72124.3,-3.89,-19.27,-17.49,0,*5F
1487884010.38,23469,10.06,72128.5,-3.93,-19.13,-17.41,0,*5A
1487884011.59,23470,10.06,72128.8,-3.91,-18.99,-17.31,0,*54
1487884012.82,23471,10.13,72136.5,-3.91,-18.99,-17.25,0,*50
1487884014.08,23472,10.06,72130.5,-3.91,-18.93,-17.17,0,*58
1487884015.31,23473,10.13,72134.0,-3.91,-18.99,-17.21,0,*56
1487884016.55,23474,10.13,72154.8,-3.91,-18.93,-17.31,0,*5A
1487884017.81,23475,10.06,72156.5,-3.91,-18.93,-17.17,0,*5F
1487884019.04,23476,10.13,72178.0,-3.91,-18.79,-17.17,0,*58
1487884020.28,23477,10.13,72176.3,-3.91,-18.83,-17.21,0,*59
1487884021.54,23478,10.06,72152.3,-3.93,-19.17,-17.41,0,*5E
1487884022.76,23479,10.13,72122.0,-3.91,-19.13,-17.49,0,*51
1487884023.97,23480,10.06,72100.0,-3.91,-19.07,-17.49,0,*52
1487884025.21,23481,10.06,72080.5,-3.91,-19.13,-17.45,0,*5A
1487884026.45,23482,10.13,72068.8,-3.93,-19.17,-17.49,0,*53
1487884027.69,23483,10.06,72056.0,-3.93,-19.17,-17.49,0,*52
1487884028.93,23484,10.13,72034.8,-3.93,-19.03,-17.35,0,*5B
1487884030.14,23485,10.13,72022.8,-3.91,-19.17,-17.49,0,*56
1487884031.4,23486,10.06,72016.3,-3.93,-19.37,-17.63,0,*5D
1487884032.65,23487,10.13,72066.0,-3.91,-19.23,-17.35,0,*58
1487884033.91,23488,10.06,72116.3,-3.93,-18.99,-17.25,0,*54
1487884035.17,23489,10.06,71994.8,-3.93,-18.55,-16.75,0,*51
1487884036.41,23490,10.13,71986.3,-3.91,-18.79,-17.03,0,*55
1487884037.67,23491,10.06,72114.5,-3.93,-18.99,-17.03,0,*58
1487884038.91,23492,10.13,72128.0,-3.93,-18.83,-16.89,0,*53
1487884040.14,23493,10.06,72068.5,-3.91,-18.11,-16.31,0,*58
1487884041.38,23494,10.06,72090.3,-3.89,-18.25,-16.55,0,*53
1487884042.62,23495,10.13,72080.3,-3.91,-18.69,-17.11,0,*52
1487884043.85,23496,10.13,72078.5,-3.91,-18.79,-17.11,0,*50
1487884045.09,23497,10.13,72104.0,-3.91,-18.99,-17.25,0,*58
1487884046.35,23498,10.06,72120.0,-3.91,-18.93,-17.11,0,*5A
1487884047.63,23499,10.13,72134.5,-3.93,-18.89,-17.21,0,*51
1487884048.86,23500,10.13,72124.0,-3.91,-18.83,-17.17,0,*5D
1487884050.12,23501,10.13,72142.3,-3.93,-18.99,-17.25,0,*54
1487884051.36,23502,10.13,72146.3,-3.91,-18.99,-17.21,0,*51
1487884052.62,23503,10.13,72144.8,-3.93,-19.17,-17.25,0,*51
1487884053.86,23504,10.13,72140.8,-3.91,-19.07,-17.21,0,*51
1487884055.13,23505,10.13,72144.3,-3.93,-19.23,-17.35,0,*51
1487884056.35,23506,10.06,72146.3,-3.95,-19.17,-17.35,0,*53
1487884057.58,23507,10.13,72140.8,-3.95,-19.13,-17.35,0,*56
1487884058.8,23508,10.13,72154.8,-3.95,-19.13,-17.35,0,*59
1487884060.03,23509,10.06,72158.5,-3.95,-19.17,-17.35,0,*5C
1487884061.29,23510,10.13,72160.8,-3.93,-19.17,-17.21,0,*57
1487884062.56,23511,10.06,72156.8,-3.93,-19.13,-17.25,0,*56
1487884063.8,23512,10.06,72150.0,-3.95,-19.13,-17.21,0,*57
1487884065.08,23513,10.13,72154.8,-3.97,-19.13,-17.25,0,*50
1487884066.34,23514,10.06,72170.0,-3.97,-19.03,-17.25,0,*56
1487884067.64,23515,10.13,72162.3,-3.97,-18.93,-17.11,0,*58
1487884068.87,23516,10.06,72148.5,-3.95,-18.83,-17.03,0,*5B
1487884070.09,23517,10.06,72130.0,-3.95,-18.45,-16.59,0,*5E
1487884071.3,23518,10.06,72134.8,-3.95,-18.73,-16.89,0,*59
1487884072.54,23519,10.06,72140.5,-3.97,-18.73,-16.83,0,*50
1487884073.79,23520,10.06,72152.3,-3.97,-18.73,-16.79,0,*5F
1487884075.09,23521,10.13,72160.5,-3.97,-18.93,-17.07,0,*58
1487884076.35,23522,10.13,72156.8,-3.97,-18.89,-16.97,0,*58
1487884077.6,23523,10.06,72154.0,-3.97,-18.73,-16.83,0,*59
1487884078.89,23524,10.06,72154.5,-3.97,-18.93,-17.11,0,*5A
1487884080.19,23525,10.06,72158.8,-3.97,-18.93,-17.21,0,*58
1487884081.45,23526,10.06,72152.8,-3.97,-19.03,-17.11,0,*50
1487884082.72,23527,10.06,72154.3,-3.97,-18.89,-16.97,0,*5D
1487884083.96,23528,10.13,72162.0,-3.97,-18.73,-16.83,0,*52
1487884085.2,23529,10.06,72170.8,-3.99,-18.89,-16.97,0,*5D
1487884086.41,23530,10.06,72172.3,-3.99,-18.73,-16.93,0,*54
1487884087.7,23531,10.06,72160.0,-3.97,-18.59,-16.69,0,*56
1487884088.94,23532,10.06,72144.0,-3.97,-18.73,-16.79,0,*5C
1487884090.18,23533,10.06,72142.5,-3.97,-18.49,-16.55,0,*5A
1487884091.45,23534,10.06,72114.8,-3.97,-18.49,-16.65,0,*5E
1487884092.69,23535,10.13,72076.0,-3.95,-18.41,-16.51,0,*52
1487884093.93,23536,10.06,71968.5,-3.97,-18.45,-16.55,0,*53
1487884095.17,23537,10.06,71924.8,-3.95,-18.41,-16.51,0,*50
1487884096.37,23538,10.06,71970.3,-3.95,-18.41,-16.45,0,*5A
1487884097.64,23539,10.06,72006.0,-3.97,-18.59,-16.55,0,*51
1487884098.91,23540,10.06,72020.0,-3.97,-18.59,-16.55,0,*5F